Dewpoint
40 37 43 52 56 52 51 51 51 41 42 42 42 42 43 44 44 48 50 49 53 56 56 60 59 64 64 67 67 69 70 71 69 68 67 64 64 66 67 66 66 66 69 71
37 35 41 49 52 49 48 52 50 41 41 39 41 41 42 45 46 45 49 50 53 53 56 58 58 58 63 66 69 71 70 73 73 73 72 70 69 69 64 66 69 71 73 76
34 39 40 42 49 47 46 48 41 43 41 43 39 41 42 43 46 47 48 49 52 56 55 55 58 60 63 68 68 71 73 73 73 73 74 73 74 74 74 72 72 73 75 75
33 39 38 36 34 34 46 48 42 42 45 41 37 34 42 41 42 43 44 45 50 52 53 55 57 59 61 66 68 72 74 74 73 75 72 73 71 71 71 73 71 73 76 75
33 37 36 33 33 38 48 46 44 46 42 45 42 49 39 42 40 41 43 47 48 51 53 53 55 58 63 66 67 71 75 75 75 74 75 73 72 71 71 71 74 76 78 77
32 36 35 31 34 42 42 39 41 44 48 47 50 46 40 39 41 40 44 47 46 51 52 55 61 60 62 65 67 70 74 76 76 75 75 75 74 73 74 74 75 73 75 75
28 32 32 36 36 41 39 39 39 39 48 46 51 45 43 38 41 40 44 44 48 48 51 55 56 59 62 65 67 70 73 75 76 75 75 76 76 75 74 75 74 74 73 74
26 28 33 34 35 35 47 50 49 44 44 40 47 42 38 41 40 40 40 41 46 46 50 53 56 59 63 63 66 70 73 74 75 75 76 77 77 75 74 76 75 75 73 72
25 29 31 33 35 40 48 46 53 50 48 42 47 44 36 38 39 41 39 42 42 43 46 48 53 56 62 63 65 69 73 74 74 72 76 77 78 77 75 75 78 75 74 75
26 27 28 31 34 34 42 48 42 43 40 43 38 35 34 40 39 39 40 39 40 42 45 47 52 53 57 60 63 66 72 73 73 71 73 74 75 77 77 77 78 77 78 78
24 27 34 34 32 31 42 42 41 53 42 46 38 32 40 42 39 41 37 39 41 42 44 49 52 56 57 62 63 67 69 71 70 70 72 72 73 74 77 75 76 76 76 75
22 25 32 35 33 32 31 30 32 34 43 43 48 36 32 36 35 38 34 40 42 45 46 47 53 56 58 61 63 64 67 66 68 72 77 74 76 75 74 74 73 73 73 73
17 24 28 35 37 31 31 33 32 36 43 38 45 34 32 36 38 40 37 44 48 47 48 49 51 59 58 61 64 64 65 68 70 75 73 74 74 72 70 70 71 71 70 70
30 16 22 31 38 33 32 31 34 48 50 40 47 34 34 37 38 39 42 44 46 49 55 50 53 58 66 70 72 73 70 72 74 73 73 73 70 70 68 68 67 68 69 68
12 15 21 26 32 37 36 33 30 43 46 47 40 30 34 40 39 41 42 45 47 50 49 55 59 69 72 73 75 75 74 75 74 73 70 71 70 68 67 67 66 66 68 69
12 18 21 22 24 41 41 40 36 34 41 49 48 39 33 37 43 43 43 46 48 50 53 62 69 72 73 74 75 75 75 74 73 71 69 70 68 66 66 66 65 66 68 68
14 15 21 23 24 42 42 38 37 32 36 36 39 43 39 38 42 41 41 45 49 51 59 67 70 71 73 74 75 74 73 72 71 70 69 68 67 69 69 68 68 66 66 66
18 22 23 23 35 35 38 40 39 36 37 36 39 40 44 40 40 38 40 45 51 57 66 70 70 73 73 73 73 72 70 70 70 69 69 69 69 68 68 68 67 67 66 65
23 17 23 23 24 33 32 35 36 39 34 34 43 43 40 38 39 42 42 48 54 62 68 69 70 71 74 73 71 70 69 69 69 69 70 69 69 68 68 67 67 66 66 65
25 24 23 25 25 28 30 33 36 37 29 33 42 46 42 36 37 44 46 48 52 63 67 68 70 71 70 70 69 69 68 69 69 69 70 70 69 68 67 68 68 68 66 63
29 34 28 25 25 23 26 26 29 30 34 36 46 44 44 43 42 45 46 51 60 66 68 70 71 70 69 69 68 68 69 68 69 70 70 69 69 68 68 68 68 66 64 64
33 32 28 31 32 29 28 27 30 40 41 40 48 49 53 47 40 43 51 60 64 66 68 70 69 68 68 69 69 68 68 69 70 70 69 68 68 65 66 67 66 66 66 64
28 28 29 24 28 44 38 34 33 31 45 40 38 42 46 38 39 53 61 64 66 67 69 68 66 67 68 69 69 68 68 69 69 68 68 68 68 66 66 66 65 64 65 60
33 33 28 33 33 31 29 32 33 37 39 38 36 38 42 40 44 57 63 65 66 68 69 65 65 66 67 69 69 68 68 69 68 68 68 67 66 65 65 62 62 63 62 60
26 35 36 35 37 35 31 33 32 32 34 36 42 49 53 46 55 61 64 66 67 69 66 65 65 66 67 69 68 67 68 68 67 67 66 66 64 64 64 56 56 54 51 52
26 33 30 31 37 42 48 37 35 35 38 39 44 44 46 51 62 65 66 68 69 68 65 65 66 67 68 68 67 67 67 67 65 64 64 63 61 59 57 54 50 48 48 47
Lifted_Index
0 -0 -1 -1 -1 -0 -0 -1 -1 -1 -1 -1 -1 0 1 0 -0 -1 -2 -2 -1 -1 -1 -2 -3 -4 -4 -4 -4 -4 -4 -4 -4 -3 -2 -1 -0 0 1 1 0 -2 -3 -3
-0 -0 -1 -1 -1 -1 -1 -1 -1 -1 -1 -1 -1 -0 0 0 -0 -1 -1 -2 -2 -1 -2 -2 -3 -4 -4 -5 -5 -5 -5 -5 -5 -4 -3 -2 -2 -1 -1 -1 -2 -3 -4 -4
-0 -1 -1 -1 -1 -1 -1 -1 -2 -2 -2 -2 -1 -1 -0 0 -0 -1 -1 -1 -1 -1 -2 -3 -3 -4 -4 -5 -6 -6 -6 -6 -6 -5 -5 -4 -4 -4 -4 -4 -4 -4 -5 -5
-1 -1 -1 -1 -1 -1 -1 -1 -1 -2 -2 -2 -1 -1 -0 -0 -0 -1 -1 -1 -1 -1 -2 -3 -3 -4 -5 -5 -6 -7 -7 -7 -7 -6 -6 -6 -5 -5 -5 -5 -5 -6 -6 -6
-0 -1 -1 -1 -1 -1 -0 -0 -1 -1 -2 -1 -1 -1 0 0 0 -0 -1 -1 -1 -1 -2 -3 -3 -4 -5 -5 -6 -7 -8 -8 -8 -7 -7 -7 -6 -6 -6 -6 -6 -6 -6 -7
-0 -0 -1 -1 -1 -0 0 -0 -1 -2 -2 -1 -0 -0 0 1 1 0 -1 -1 -1 -2 -2 -3 -3 -4 -5 -5 -6 -7 -8 -8 -8 -8 -7 -7 -7 -7 -7 -6 -6 -6 -6 -7
-1 -1 -1 -1 -1 -0 -0 -0 -1 -1 -1 -0 0 0 0 1 0 -0 -1 -2 -1 -2 -2 -3 -3 -4 -4 -5 -6 -7 -8 -8 -8 -8 -8 -7 -7 -7 -7 -7 -7 -6 -6 -6
-1 -1 -1 -1 -1 -1 -1 -0 -0 -0 -0 0 0 0 1 1 0 0 -0 -1 -2 -1 -2 -2 -3 -3 -4 -5 -5 -6 -8 -8 -8 -8 -8 -8 -8 -8 -7 -7 -7 -7 -6 -6
-1 -1 -1 -0 -0 -1 -1 -0 0 0 -0 -0 -0 0 1 1 1 1 0 -0 -1 -1 -1 -1 -2 -3 -3 -4 -5 -6 -7 -8 -8 -8 -8 -8 -8 -8 -8 -8 -7 -7 -7 -7
-0 -1 -1 -0 -0 -0 -1 -0 0 -0 -0 -0 -1 0 1 1 1 1 1 0 0 -0 0 -0 -1 -2 -3 -4 -4 -6 -7 -7 -7 -7 -7 -8 -8 -8 -8 -8 -7 -7 -7 -7
0 -0 -0 -0 -0 -0 -1 -1 -1 -0 -0 -0 -0 0 1 2 2 2 1 1 1 1 1 -0 -1 -2 -2 -3 -4 -5 -6 -6 -6 -7 -7 -7 -7 -8 -7 -7 -6 -6 -5 -5
0 -0 -0 0 -0 -0 -0 -1 -1 -0 -0 -0 -0 0 2 2 2 2 2 2 1 1 1 0 -1 -2 -2 -3 -4 -5 -5 -6 -6 -7 -7 -7 -7 -7 -6 -5 -5 -4 -3 -3
-0 -0 -0 0 0 -0 -0 -0 -0 -0 -0 -0 -0 1 2 2 2 2 2 2 1 1 0 -0 -1 -2 -2 -3 -4 -5 -5 -6 -7 -7 -7 -7 -7 -6 -5 -4 -3 -2 -1 -0
-0 -0 -0 0 0 -0 -1 -1 -1 -0 -0 -0 -0 1 2 2 3 3 2 2 1 1 -0 -1 -2 -3 -4 -5 -6 -6 -6 -7 -7 -7 -7 -7 -6 -4 -3 -2 -1 0 1 2
1 0 -0 -0 -0 -0 -0 -1 -1 -0 -0 -0 0 1 1 2 2 2 2 2 1 0 -1 -2 -3 -5 -6 -7 -7 -7 -7 -7 -7 -7 -6 -5 -3 -2 0 1 2 3 3 2
1 1 0 -0 -1 -0 0 0 -0 -1 -0 -0 0 0 1 1 2 2 2 2 1 0 -2 -4 -5 -7 -7 -8 -8 -8 -7 -6 -5 -4 -3 -2 -0 1 2 3 3 3 3 3
1 1 1 -0 -1 -0 1 1 0 -0 -0 -0 -0 0 0 1 2 2 3 2 1 -1 -3 -5 -7 -7 -7 -8 -7 -7 -6 -4 -3 -2 -0 1 2 2 2 3 3 3 3 4
2 1 1 -0 -0 0 1 1 1 0 -0 -0 0 1 1 1 2 2 3 2 0 -2 -5 -6 -7 -7 -7 -7 -6 -5 -3 -2 -1 0 1 1 2 2 2 2 3 3 4 4
2 1 0 -0 -0 0 1 1 1 0 -0 -0 1 1 0 0 1 2 2 1 -1 -3 -6 -6 -7 -7 -7 -6 -4 -2 -1 -0 0 1 1 1 2 2 2 3 3 3 4 4
2 1 0 -0 -0 -0 0 1 1 -0 -1 -0 0 0 -0 -0 1 1 1 0 -2 -4 -6 -6 -6 -6 -5 -4 -2 -1 -0 0 0 1 1 1 2 2 3 3 3 4 5 5
3 2 1 0 -0 -0 -0 -0 -1 -1 -1 -1 -0 -0 -0 -0 -0 0 -0 -1 -3 -5 -6 -6 -6 -5 -3 -2 -1 -0 0 0 0 1 1 2 2 3 3 3 4 5 6 6
3 3 2 1 1 0 -0 -1 -1 -1 -1 -1 -1 -1 -1 -1 -1 -1 -2 -3 -4 -5 -6 -6 -5 -3 -2 -1 -0 0 0 1 1 1 1 2 2 3 3 4 4 5 6 6
3 3 3 2 2 1 0 0 -0 -0 -1 -1 -1 -1 -1 -1 -1 -3 -4 -5 -6 -6 -6 -5 -3 -2 -1 -1 -1 0 1 1 1 1 2 2 2 3 4 4 5 5 6 7
3 3 3 3 2 2 1 1 0 -0 -0 -0 -0 -1 -1 -1 -3 -4 -5 -6 -6 -6 -6 -4 -2 -2 -1 -1 -1 0 1 1 1 1 1 2 3 3 4 5 6 7 8 8
1 2 2 3 2 2 2 2 1 0 0 -0 -0 -0 -1 -2 -4 -5 -6 -7 -7 -6 -5 -3 -2 -2 -1 -1 -0 0 1 1 1 1 1 2 3 4 5 7 8 9 10 11
0 1 2 3 3 2 2 2 1 1 0 -0 -1 -0 -1 -3 -5 -6 -6 -7 -7 -6 -5 -3 -3 -2 -2 -1 -0 0 0 0 1 1 1 2 3 5 6 7 9 10 11 12